Miscellaneous Local Product
Issued by NWS North Platte, NE

Home | Current Version | Previous Version | Graphics & Text | Print | Product List | Glossary On
Versions: 1 2 3 4 5 6 7 8 9 10 11 12 13 14 15 16 17 18 19 20 21 22 23 24 25 26 27 28 29 30 31 32 33 34 35 36 37 38 39 40 41 42 43 44 45 46 47 48 49 50
000
AXUS43 KLBF 301810
MISLBF


WESTERN AND NORTH CENTRAL NEBRASKA HOURLY WEATHER ROUNDUP
NATIONAL WEATHER SERVICE NORTH PLATTE NE
100 PM CDT TUE JUN 30 2015

***STATIONS NOT REPORTING VARIABLES SUCH AS SKY/WEATHER OR
PRESSURE ARE PROVIDED BY THE NEBRASKA DEPARTMENT OF
ROADS...RAWS...AND APRS NETWORKS...AND ARE NOT UNDER
NATIONAL WEATHER SERVICE QUALITY CONTROL***

...OBSERVATIONS IN AND NEAR THE EASTERN PANHANDLE OF NEBRASKA...

CITY           SKY/WX    TMP DP  RH WIND       PRES   REMARKS
PINE RIDGE     CLOUDY    83  61  47 W5        29.95F
CHADRON        PTSUNNY   84  65  52 N3        29.94F
ALLIANCE       SUNNY     89  52  28 W7        29.99F
SIDNEY         SUNNY     90  49  24 W5        30.05F
WHITECLAY        N/A     83  60  44 S3          N/A
BIG SPRINGS      N/A     92  58  31 SW8         N/A  HX  91
$$

...OBSERVATIONS IN NORTH CENTRAL NEBRASKA...

CITY           SKY/WX    TMP DP  RH WIND       PRES   REMARKS
VALENTINE      PTSUNNY   85  63  47 E12       29.92F
THEDFORD       PTSUNNY   92  60  34 SW10      29.94F HX  91
AINSWORTH      PTSUNNY   83  64  51 E10       29.94F
O`NEILL        CLOUDY    82  62  50 SE10      29.95F
ORD            CLOUDY    85  65  51 E10       29.92F
BROKEN BOW     PTSUNNY   89  65  44 S10       29.93F HX  91
SPRINGVIEW       N/A     80  64  58 E12         N/A
HALSEY           N/A     91  58  32 S7          N/A
BREWSTER         N/A     88  69  53 SE9         N/A  HX  93
ROSE             N/A     92  76  59 E10         N/A  HX 103
NEWPORT          N/A     80  63  56 E13         N/A
SARGENT          N/A     85  70  61 CALM        N/A
CHAMBERS         N/A     82  62  50 E9          N/A
EWING            N/A     81  66  60 E7G14       N/A
$$

...OBSERVATIONS IN SOUTHWEST NEBRASKA AND FAR NORTHEAST COLORADO...

CITY           SKY/WX    TMP DP  RH WIND       PRES   REMARKS
WRAY           FAIR      96  50  21 S6        30.02F HX  92
HOLYOKE        FAIR      95  57  28 S9        30.01F HX  94
IMPERIAL       MOSUNNY   94  56  27 S8        29.98F HX  92
OGALLALA       SUNNY     91  60  35 SW7       29.97F HX  90
NORTH PLATTE   MOSUNNY   91  61  36 SW8       29.94F HX  91
MCCOOK         MOSUNNY   94  57  28 SW13      29.95F HX  92
LEXINGTON      PTSUNNY   92  59  33 S10       29.94F HX  91
PAXTON           N/A     93  64  37 SW3         N/A  HX  94
GOTHENBURG       N/A     90  57  32 S7          N/A
CALLAWAY         N/A     87  70  56 S10         N/A  HX  91
$$

...NORTH PLATTE AREA...

CITY           SKY/WX    TMP DP  RH WIND       PRES   REMARKS
AIRPORT        MOSUNNY   91  61  36 SW8       29.94F HX  91
DOWNTOWN         N/A     92  64  39 S3          N/A  HX  93
HILLCREST        N/A     89  62  40 SW6         N/A
$$

...SOME WEATHER OBSERVATIONS FROM AROUND THE REGION...

CITY           SKY/WX    TMP DP  RH WIND       PRES   REMARKS
DENVER         MOSUNNY   87  39  18 VRB3      30.15F
LARAMIE        SUNNY     83  40  21 VRB5      30.26F
CHEYENNE       SUNNY     87  44  22 VRB3      30.17F
SCOTTSBLUFF    MOSUNNY   91  57  31 VRB6      30.00F
RAPID CITY     CLOUDY    79  64  60 S5        29.92F
PIERRE         CLOUDY    75  65  70 E13       29.88F
WINNER         FAIR      84  57  39 SE21G28   29.90F
SIOUX FALLS    CLOUDY    75  63  66 SE3       29.93F
OMAHA          LGT RAIN  75  67  76 NW3       29.95R HAZE
GRAND ISLAND   CLOUDY    88  67  49 SE7       29.94S HX  91
KANSAS CITY    CLOUDY    84  67  56 N6        29.95F
WICHITA        MOSUNNY   96  59  29 SW10G18   29.95F HX  95
HAYS           MOSUNNY   99  54  22 W13G21    29.94F HX  96
LIBERAL        SUNNY     91  57  31 S12G21    30.08F HX  90
GOODLAND       MOSUNNY   92  46  20 SW8       30.03F
$$



USA.gov is the U.S. government's official web portal to all federal, state and local government web resources and services.